When you browse on this site, cookies collect data to enhance your experience and personalize the content and advertising you see.
Visit our Privacy Policy to learn more. By continuing to use the site, you agree to this use of cookies and data.
  • In Schweiz
  • Länderverzeichnis
  • Für 7 Tage
  • Wassertemperatur
  • Satellitenkarten
  • Wetterkarte
  • Widgets
  • user-avatar
    Anmelden

    Stündliche Wetter Quito

    Heute, 21 Mai, Dienstag

    Zeit Temperatur Niederschläge Wind Luftdruck Luftfeuchtigkeit
    00:00 +15°C° 0 mm 1 m/S 622 mmHg 47%
    01:00 +13°C° 0 mm 0 m/S 622 mmHg 50%
    02:00 +14°C° 0 mm 1 m/S 622 mmHg 52%
    03:00 +13°C° 0 mm 1 m/S 622 mmHg 54%
    04:00 +13°C° 0 mm 1 m/S 621 mmHg 56%
    05:00 +13°C° 0 mm 1 m/S 622 mmHg 58%
    06:00 +14°C° 0 mm 1 m/S 622 mmHg 60%
    07:00 +15°C° 0 mm 1 m/S 623 mmHg 56%
    08:00 +19°C° 0 mm 1 m/S 624 mmHg 52%
    09:00 +21°C° 0 mm 2 m/S 625 mmHg 49%
    10:00 +24°C° 0 mm 2 m/S 625 mmHg 46%
    11:00 +25°C° 0 mm 2 m/S 625 mmHg 43%
    12:00 +26°C° 0 mm 2 m/S 625 mmHg 41%
    13:00 +26°C° 0 mm 2 m/S 624 mmHg 42%
    14:00 +25°C° 0 mm 2 m/S 624 mmHg 45%
    15:00 +25°C° 0 mm 1 m/S 623 mmHg 48%
    16:00 +24°C° 0 mm 1 m/S 623 mmHg 50%
    17:00 +22°C° 0 mm 1 m/S 623 mmHg 55%
    18:00 +20°C° 0 mm 1 m/S 622 mmHg 60%
    19:00 +18°C° 0 mm 1 m/S 622 mmHg 65%
    20:00 +18°C° 0 mm 1 m/S 622 mmHg 66%
    21:00 +16°C° 0 mm 1 m/S 622 mmHg 66%
    22:00 +16°C° 0 mm 1 m/S 622 mmHg 66%
    23:00 +16°C° 0 mm 1 m/S 622 mmHg 66%

    Morgen, 22 Mai, Mittwoch

    Zeit Temperatur Niederschläge Wind Luftdruck Luftfeuchtigkeit
    00:00 +14°C° 0 mm 0 m/S 622 mmHg 65%
    01:00 +14°C° 0 mm 0 m/S 622 mmHg 64%
    02:00 +14°C° 0 mm 0 m/S 622 mmHg 66%
    03:00 +13°C° 0 mm 0 m/S 622 mmHg 67%
    04:00 +13°C° 0 mm 0 m/S 621 mmHg 69%
    05:00 +13°C° 0 mm 0 m/S 622 mmHg 69%
    06:00 +14°C° 0 mm 0 m/S 622 mmHg 69%
    07:00 +15°C° 0 mm 0 m/S 623 mmHg 70%
    08:00 +19°C° 0 mm 1 m/S 624 mmHg 61%
    09:00 +22°C° 0 mm 1 m/S 625 mmHg 53%
    10:00 +25°C° 0 mm 2 m/S 626 mmHg 44%
    11:00 +25°C° 0 mm 2 m/S 625 mmHg 43%
    12:00 +25°C° 0 mm 1 m/S 625 mmHg 42%
    13:00 +26°C° 0 mm 1 m/S 624 mmHg 41%
    14:00 +25°C° 0 mm 1 m/S 624 mmHg 43%
    15:00 +25°C° 0 mm 1 m/S 624 mmHg 45%
    16:00 +25°C° 0 mm 1 m/S 623 mmHg 46%
    17:00 +23°C° 0 mm 1 m/S 623 mmHg 50%
    18:00 +21°C° 0 mm 1 m/S 623 mmHg 54%
    19:00 +19°C° 0 mm 1 m/S 622 mmHg 58%
    20:00 +18°C° 0 mm 1 m/S 622 mmHg 59%
    21:00 +18°C° 0 mm 1 m/S 623 mmHg 59%
    22:00 +16°C° 0 mm 1 m/S 623 mmHg 59%
    23:00 +16°C° 0 mm 1 m/S 623 mmHg 59%

    übermorgen, 23 Mai, Donnerstag

    Zeit Temperatur Niederschläge Wind Luftdruck Luftfeuchtigkeit
    00:00 +16°C° 0 mm 1 m/S 622 mmHg 59%
    01:00 +15°C° 0 mm 1 m/S 622 mmHg 60%
    02:00 +15°C° 0 mm 1 m/S 622 mmHg 62%
    03:00 +13°C° 0 mm 0 m/S 621 mmHg 65%
    04:00 +13°C° 0 mm 0 m/S 621 mmHg 67%
    05:00 +13°C° 0 mm 0 m/S 622 mmHg 67%
    06:00 +14°C° 0 mm 0 m/S 622 mmHg 67%
    07:00 +15°C° 0 mm 0 m/S 623 mmHg 66%
    08:00 +20°C° 0 mm 1 m/S 624 mmHg 59%
    09:00 +21°C° 0 mm 2 m/S 625 mmHg 51%
    10:00 +25°C° 0 mm 3 m/S 626 mmHg 44%
    11:00 +26°C° 0 mm 3 m/S 625 mmHg 40%
    12:00 +27°C° 0 mm 2 m/S 625 mmHg 36%
    13:00 +28°C° 0 mm 2 m/S 625 mmHg 33%
    14:00 +28°C° 0 mm 2 m/S 624 mmHg 33%
    15:00 +27°C° 0 mm 2 m/S 624 mmHg 34%
    16:00 +27°C° 0 mm 1 m/S 623 mmHg 35%
    17:00 +25°C° 0 mm 1 m/S 623 mmHg 39%
    18:00 +22°C° 0 mm 1 m/S 622 mmHg 44%
    19:00 +20°C° 0 mm 1 m/S 622 mmHg 48%
    20:00 +19°C° 0 mm 1 m/S 622 mmHg 49%
    21:00 +19°C° 0 mm 1 m/S 623 mmHg 49%
    22:00 +18°C° 0 mm 1 m/S 623 mmHg 49%
    23:00 +18°C° 0 mm 1 m/S 623 mmHg 50%

    24 Mai, Freitag

    Zeit Temperatur Niederschläge Wind Luftdruck Luftfeuchtigkeit
    00:00 +16°C° 0 mm 0 m/S 622 mmHg 51%
    01:00 +15°C° 0 mm 0 m/S 622 mmHg 51%
    02:00 +15°C° 0 mm 0 m/S 622 mmHg 53%
    03:00 +14°C° 0 mm 0 m/S 621 mmHg 55%
    04:00 +14°C° 0 mm 0 m/S 621 mmHg 56%
    05:00 +14°C° 0 mm 0 m/S 622 mmHg 58%
    06:00 +15°C° 0 mm 0 m/S 622 mmHg 60%
    07:00 +15°C° 0 mm 0 m/S 623 mmHg 61%
    08:00 +20°C° 0 mm 1 m/S 624 mmHg 54%
    09:00 +23°C° 0 mm 2 m/S 625 mmHg 47%
    10:00 +26°C° 0 mm 3 m/S 626 mmHg 40%
    11:00 +27°C° 0 mm 3 m/S 626 mmHg 37%
    12:00 +28°C° 0 mm 3 m/S 625 mmHg 35%
    13:00 +28°C° 0 mm 2 m/S 625 mmHg 33%
    14:00 +28°C° 0 mm 2 m/S 625 mmHg 35%
    15:00 +27°C° 0 mm 2 m/S 624 mmHg 36%
    16:00 +27°C° 0 mm 1 m/S 624 mmHg 38%
    17:00 +24°C° 0 mm 1 m/S 623 mmHg 42%
    18:00 +22°C° 0 mm 1 m/S 623 mmHg 46%
    19:00 +18°C° 0 mm 0 m/S 623 mmHg 49%
    20:00 +18°C° 0 mm 0 m/S 623 mmHg 49%
    21:00 +18°C° 0 mm 0 m/S 624 mmHg 49%
    22:00 +18°C° 0 mm 0 m/S 624 mmHg 49%
    23:00 +20°C° 0 mm 1 m/S 624 mmHg 49%

    25 Mai, Samstag

    Zeit Temperatur Niederschläge Wind Luftdruck Luftfeuchtigkeit
    00:00 +20°C° 0 mm 1 m/S 624 mmHg 49%
    01:00 +20°C° 0 mm 1 m/S 624 mmHg 49%
    02:00 +20°C° 0 mm 1 m/S 624 mmHg 49%
    03:00 +20°C° 0 mm 1 m/S 623 mmHg 50%
    04:00 +19°C° 0 mm 1 m/S 623 mmHg 51%
    05:00 +19°C° 0 mm 1 m/S 624 mmHg 54%
    06:00 +18°C° 0 mm 1 m/S 624 mmHg 57%
    07:00 +18°C° 0 mm 1 m/S 624 mmHg 60%
    08:00 +19°C° 0 mm 2 m/S 625 mmHg 52%
    09:00 +21°C° 0 mm 3 m/S 626 mmHg 44%
    10:00 +25°C° 0 mm 4 m/S 626 mmHg 36%
    11:00 +25°C° 0 mm 4 m/S 626 mmHg 34%
    12:00 +26°C° 0 mm 4 m/S 625 mmHg 32%
    13:00 +27°C° 0 mm 3 m/S 625 mmHg 30%
    14:00 +27°C° 0 mm 3 m/S 624 mmHg 31%
    15:00 +27°C° 0 mm 2 m/S 624 mmHg 32%
    16:00 +27°C° 0 mm 2 m/S 624 mmHg 32%
    17:00 +24°C° 0 mm 1 m/S 623 mmHg 38%
    18:00 +21°C° 0 mm 1 m/S 623 mmHg 43%
    19:00 +17°C° 0 mm 0 m/S 623 mmHg 48%
    20:00 +16°C° 0 mm 0 m/S 623 mmHg 49%
    21:00 +16°C° 0 mm 0 m/S 623 mmHg 50%
    22:00 +15°C° 0 mm 0 m/S 623 mmHg 51%
    23:00 +15°C° 0 mm 0 m/S 623 mmHg 53%

    26 Mai, Sonntag

    Zeit Temperatur Niederschläge Wind Luftdruck Luftfeuchtigkeit
    00:00 +15°C° 0 mm 1 m/S 623 mmHg 55%
    01:00 +15°C° 0 mm 1 m/S 622 mmHg 57%
    02:00 +14°C° 0 mm 1 m/S 622 mmHg 58%
    03:00 +14°C° 0 mm 1 m/S 622 mmHg 60%
    04:00 +13°C° 0 mm 1 m/S 622 mmHg 61%
    05:00 +13°C° 0 mm 1 m/S 622 mmHg 61%
    06:00 +14°C° 0 mm 1 m/S 623 mmHg 61%
    07:00 +14°C° 0 mm 1 m/S 623 mmHg 62%
    08:00 +17°C° 0 mm 2 m/S 624 mmHg 53%
    09:00 +20°C° 0 mm 3 m/S 625 mmHg 45%
    10:00 +22°C° 0 mm 4 m/S 626 mmHg 37%
    11:00 +24°C° 0 mm 3 m/S 625 mmHg 35%
    12:00 +25°C° 0 mm 3 m/S 625 mmHg 32%
    13:00 +26°C° 0 mm 3 m/S 624 mmHg 30%
    14:00 +26°C° 0 mm 2 m/S 624 mmHg 31%
    15:00 +26°C° 0 mm 2 m/S 623 mmHg 32%
    16:00 +26°C° 0 mm 2 m/S 623 mmHg 32%
    17:00 +23°C° 0 mm 1 m/S 623 mmHg 37%
    18:00 +21°C° 0 mm 1 m/S 623 mmHg 42%
    19:00 +16°C° 0 mm 0 m/S 622 mmHg 47%
    20:00 +16°C° 0 mm 0 m/S 623 mmHg 48%
    21:00 +16°C° 0 mm 1 m/S 623 mmHg 49%
    22:00 +16°C° 0 mm 1 m/S 623 mmHg 50%
    23:00 +15°C° 0 mm 1 m/S 622 mmHg 52%
    Mehr zeigen